Regional Weather Roundup
Issued by NWS

Home | Current Version | Previous Version | Text Only | Print | Product List | Glossary Off
Versions: 1 2 3 4 5 6 7 8 9 10 11 12 13 14 15 16 17 18 19 20 21 22 23 24 25 26 27 28 29 30 31 32 33 34 35 36 37 38 39 40 41 42 43 44 45 46 47 48 49 50

685
ASUS43 KOAX 231603
RWRNE

WEATHER ROUNDUP FOR NEBRASKA
NATIONAL WEATHER SERVICE OMAHA NE
1100 AM CDT WED MAY 23 2018

NOTES: SATELLITE DATA IS BEING USED TO AUGMENT CLOUD COVER ABOVE
       12000 FEET.
       "FAIR" INDICATES FEW OR NO CLOUDS BELOW 12,000 FEET WITH NO
       SIGNIFICANT WEATHER AND/OR OBSTRUCTIONS TO VISIBILITY.


NEZ001>004-019>022-054>056-231700-
NEBRASKA PANHANDLE

CITY           SKY/WX    TMP DP  RH WIND       PRES   REMARKS
SCOTTSBLUFF    PTSUNNY   66  59  78 CALM      29.98F
ALLIANCE       LGT RAIN  65  56  72 W3        29.99R
CHADRON        PTSUNNY   60  56  86 SW3       29.97S
GORDON         PTSUNNY   64  58  81 W5        29.96R
KIMBALL        MOSUNNY   65  53  64 NW3       30.03F
SIDNEY         PTSUNNY   67  55  65 CALM      30.01R
$$

NEZ057>060-069>072-079>082-231700-
SOUTHWEST NEBRASKA

CITY           SKY/WX    TMP DP  RH WIND       PRES   REMARKS
NORTH PLATTE   PTSUNNY   76  61  59 SW5       29.98F
IMPERIAL       PTSUNNY   75  53  46 S16G26    29.98F
LEXINGTON      CLOUDY    76  63  64 S10       30.01S
MCCOOK         CLOUDY    76  58  53 S12G20    29.99F
OGALLALA       PTSUNNY   76  55  48 SW13      29.97F
$$

NEZ005>010-023>029-035>040-094-231700-
NORTH CENTRAL NEBRASKA

CITY           SKY/WX    TMP DP  RH WIND       PRES   REMARKS
VALENTINE      MOSUNNY   78  61  55 S14       29.93S
AINSWORTH      SUNNY     77  63  61 S15       29.95R
BROKEN BOW     MOSUNNY   77  62  59 S15       29.99S
O`NEILL        MOSUNNY   80  66  62 S12G22    29.97S
ORD            MOSUNNY   76  64  66 S21G28    29.97S
THEDFORD       PTSUNNY   81  56  41 S17G25    29.96F
$$

NEZ041-046>049-061>064-073>077-083>087-231700-
SOUTH CENTRAL NEBRASKA

CITY           SKY/WX    TMP DP  RH WIND       PRES   REMARKS
GRAND ISLAND   SUNNY     80  66  62 S20G30    30.02S
AURORA         SUNNY     82  64  55 S16G25    30.02F
HASTINGS       SUNNY     80  65  59 S15G26    30.03S
HEBRON         SUNNY     84  63  47 S15       30.05S
HOLDREGE       PTSUNNY   74  63  67 S12       30.02S
KEARNEY        PTSUNNY   79  61  53 SW15      30.02S
YORK           MOSUNNY   82  64  54 S18G25    30.03F
$$

NEZ011>018-030>034-042>045-231700-
NORTHEAST NEBRASKA

CITY           SKY/WX    TMP DP  RH WIND       PRES   REMARKS
NORFOLK        CLOUDY    83  64  52 S17G26    30.00R
ALBION         SUNNY     81  67  61 S18G28    30.01S
BLAIR          SUNNY     81  68  65 S14       30.07R
COLUMBUS       SUNNY     84  64  50 S17G25    30.03S
FREMONT        SUNNY     83  67  59 SE10G16   30.05S
TEKAMAH        MOSUNNY   82  70  66 S14       30.04S
WAYNE          PTSUNNY   81  70  70 S14G21    30.02S
$$

NEZ050>053-065>068-078-088>093-231700-
SOUTHEAST NEBRASKA

CITY           SKY/WX    TMP DP  RH WIND       PRES   REMARKS
LINCOLN        SUNNY     84  67  56 S14       30.04F
OMAHA EPPLEY   MOSUNNY   82  68  62 S14       30.06S
BEATRICE       SUNNY     83  68  59 SW15G21   30.07S
FALLS CITY     SUNNY     85  65  51 S15G21    30.07F
NEBRASKA CITY  MOSUNNY   83  69  63 S13G21    30.08F
PLATTSMOUTH    MOSUNNY   82  69  64 S9        30.07F
$$

NEZ044-045-051>053-067-231700-
OMAHA AREA

CITY           SKY/WX    TMP DP  RH WIND       PRES   REMARKS
OMAHA EPPLEY   MOSUNNY   82  68  62 S14       30.06S
BLAIR          SUNNY     81  68  65 S14       30.07R
FREMONT        SUNNY     83  67  59 SE10G16   30.05S
MILLARD        SUNNY     83  70  64 S10       30.06S
OFFUTT AFB     SUNNY     82  70  66 S10       30.06S
PLATTSMOUTH    MOSUNNY   82  69  64 S9        30.07F
WAHOO          FAIR      85  64  48 S15       30.05S
$$




USA.gov is the U.S. government's official web portal to all federal, state and local government web resources and services.